Temperature
20 19 18 20 20 19 19 18 18 19 20 19 18 18 19 20 21 21 21 20 20 20 20 20 20 19 17 16 15 13 13 12 12 11 11 11 11 11 11 10 10 10 10 10
19 19 20 20 20 19 18 18 18 19 20 19 17 17 18 20 21 21 20 20 19 19 19 19 19 18 17 16 15 14 13 12 12 12 13 12 12 12 12 11 10 10 10 10
19 20 20 20 19 19 18 18 18 18 17 18 17 17 20 21 21 20 20 19 18 18 18 18 18 17 17 16 15 14 13 12 12 12 11 10 10 10 10 11 11 11 10 10
20 20 19 19 18 19 18 18 17 17 16 16 18 15 18 20 19 19 19 19 18 18 17 17 17 17 16 16 15 14 13 12 12 11 10 10 11 11 13 12 12 11 10 10
19 19 18 18 18 18 18 17 16 16 15 15 17 16 17 20 19 18 18 19 18 17 17 17 16 16 15 15 14 14 13 12 11 10 10 10 10 11 10 10 9 9 9 9
18 19 18 18 17 17 17 16 16 16 15 15 18 17 18 20 20 19 19 19 18 17 17 16 16 15 15 15 14 13 13 12 11 10 9 9 9 9 8 8 8 8 8 8
20 18 18 17 17 16 16 16 16 16 14 16 18 17 17 20 20 19 19 18 17 16 16 15 15 15 14 14 14 13 13 12 11 10 9 9 9 8 8 7 7 7 6 7
19 18 17 16 17 17 18 17 16 16 17 17 18 16 18 20 20 20 19 18 17 16 15 15 14 14 14 13 13 13 13 12 12 11 10 9 8 8 8 7 7 6 6 6
19 19 17 17 17 17 18 17 17 16 16 15 17 19 20 20 19 19 19 17 16 15 15 14 14 13 13 13 13 13 13 12 12 11 11 10 9 9 8 8 7 6 6 5
18 18 18 15 15 15 16 15 15 15 15 15 17 18 18 19 19 18 17 17 15 15 14 13 13 13 13 12 12 12 12 12 12 12 11 11 10 10 9 8 8 7 7 6
18 17 17 15 15 16 14 15 15 15 15 14 14 16 19 19 19 17 17 16 15 14 13 13 13 12 12 12 12 12 12 12 12 11 11 11 11 10 9 9 9 8 7 6
18 16 16 17 17 17 17 17 16 14 15 15 14 15 20 19 18 17 16 15 14 14 13 13 12 12 12 11 11 11 11 11 11 11 11 10 10 10 10 9 9 8 8 7
17 15 15 16 15 14 15 16 16 15 14 13 13 14 18 18 18 17 15 15 14 13 13 12 12 11 11 11 11 10 10 10 10 10 10 10 9 9 9 9 9 8 8 7
15 14 14 14 15 16 15 16 16 14 13 13 13 15 16 16 16 15 15 14 14 13 13 12 11 11 10 10 10 10 10 9 9 9 9 9 8 8 8 8 8 7 7 7
14 13 14 14 15 15 15 15 15 14 14 13 14 14 15 15 14 14 13 13 13 13 12 11 11 10 10 10 9 9 9 8 8 8 8 8 7 7 7 7 6 6 6 6
13 13 13 13 14 14 14 14 14 14 14 14 14 14 15 14 14 13 12 12 12 12 11 11 10 10 9 9 8 8 8 8 7 7 7 7 6 6 6 6 6 6 6 5
13 12 12 11 13 12 12 14 14 14 15 14 13 14 13 12 12 12 12 12 11 11 10 10 9 9 8 8 8 7 7 7 7 6 6 6 5 5 5 5 5 5 5 4
12 12 11 10 11 9 12 15 15 15 14 14 13 13 12 12 12 12 12 11 10 10 9 9 8 8 8 7 7 7 6 6 6 5 5 5 4 4 4 4 4 3 3 3
12 11 11 10 9 10 13 14 14 13 13 13 13 12 12 12 11 11 11 10 9 9 8 8 8 7 7 7 6 6 6 5 5 5 4 4 3 3 3 3 3 2 2 2
10 10 9 9 9 8 13 12 13 12 11 12 12 11 11 10 7 8 9 9 8 8 7 7 7 6 6 6 5 5 5 4 4 4 3 3 3 2 2 1 1 1 1 1
9 9 8 8 8 10 13 12 12 11 11 12 12 11 10 9 8 8 8 8 7 7 6 6 6 6 6 5 5 4 4 4 3 3 2 2 2 1 1 1 0 0 0 -0
10 9 8 8 8 9 12 12 11 11 12 12 11 10 9 8 8 7 7 7 6 6 6 5 5 5 5 5 4 3 3 3 2 2 1 1 1 0 -0 -0 -0 -0 -1 -1
11 11 11 10 10 13 13 13 12 12 11 10 9 8 8 7 7 6 6 6 5 5 5 4 4 4 4 4 3 3 2 2 1 1 0 0 -0 -1 -1 -1 -1 -1 -1 -1
11 12 10 10 11 12 12 12 11 10 9 8 8 7 7 6 6 5 5 5 4 4 4 4 4 3 3 3 2 2 1 1 0 -0 -0 -1 -1 -1 -1 -1 -2 -2 -2 -2
10 10 9 9 10 11 11 10 9 8 8 7 7 6 6 5 5 4 4 4 4 4 3 3 3 3 2 2 1 1 0 -0 -1 -1 -1 -1 -2 -2 -2 -2 -2 -2 -2 -2
8 8 8 8 9 8 8 8 7 7 6 6 5 5 5 4 4 4 3 3 3 3 3 3 2 2 1 1 0 -0 -1 -1 -1 -2 -2 -2 -2 -2 -2 -2 -2 -2 -2 -3
Wind_Speed
7 5 7 6 3 6 8 9 13 13 7 4 10 17 20 16 6 5 6 7 7 7 7 3 7 12 14 15 14 16 17 16 14 13 14 14 14 11 10 12 20 23 24 25
7 9 7 4 4 4 8 10 12 11 4 7 12 15 17 8 3 5 6 7 8 9 10 8 3 6 10 13 14 14 16 17 15 14 13 10 10 9 10 8 16 23 24 25
11 5 2 3 7 9 10 10 9 9 10 9 9 10 3 6 10 8 8 9 9 9 9 8 6 1 6 10 13 13 14 16 17 14 8 7 7 7 10 12 14 16 23 25
7 1 2 4 7 7 8 3 5 7 7 6 6 6 7 6 8 8 8 8 8 8 8 7 6 3 2 7 10 12 12 14 14 15 13 14 15 17 17 12 11 12 18 21
6 3 3 6 4 4 5 4 6 7 7 6 6 6 8 5 7 8 8 8 7 7 8 8 6 5 2 3 7 9 11 12 12 14 16 15 17 15 10 9 11 14 14 17
11 2 1 2 2 1 6 8 9 5 3 5 5 6 7 1 6 7 7 7 8 8 9 9 8 6 4 1 3 6 8 10 11 13 15 16 18 14 12 12 13 12 11 13
8 8 4 1 4 6 5 5 3 2 4 5 2 3 8 2 7 8 6 6 8 8 8 9 9 9 7 4 1 4 7 9 9 11 14 15 16 15 15 13 12 11 11 12
5 5 8 6 3 2 3 3 4 4 4 5 3 7 7 2 5 6 6 6 7 8 7 8 8 8 7 7 4 2 5 8 9 10 12 13 13 12 12 13 12 12 12 12
4 1 4 3 1 2 4 3 1 3 7 6 6 7 5 2 5 6 6 6 7 6 7 7 7 7 6 6 5 3 3 5 7 9 10 11 12 12 13 13 12 12 11 10
5 5 4 5 2 4 5 6 3 4 4 5 7 7 2 3 1 3 4 5 6 6 6 7 6 6 5 4 3 2 2 3 4 6 8 8 10 11 12 11 13 13 12 11
3 5 2 5 8 8 6 4 5 5 6 4 5 5 3 5 4 5 4 5 6 6 5 5 6 6 6 5 4 3 3 3 4 5 6 8 8 9 10 11 12 12 12 12
2 3 6 7 1 3 3 4 5 5 7 6 7 7 4 2 4 4 5 6 5 5 4 4 5 7 7 7 7 6 5 4 4 5 6 7 8 8 9 11 11 11 12 12
1 3 5 3 2 2 2 4 6 6 6 7 8 10 4 7 9 7 6 5 4 3 4 4 5 7 7 8 8 7 7 6 5 5 6 7 8 8 10 10 10 10 11 11
2 4 6 8 9 7 8 8 8 8 9 11 13 17 15 14 10 6 6 6 5 4 4 5 6 7 8 8 8 8 8 7 7 6 6 8 8 9 9 9 9 10 10 11
3 6 9 12 13 13 15 15 13 14 14 17 18 19 18 11 5 6 7 7 7 6 6 6 7 8 8 9 9 9 9 9 8 7 8 9 8 8 8 8 9 9 10 11
4 5 8 11 12 13 18 19 17 17 17 17 18 18 8 3 5 7 8 9 9 7 7 8 9 10 9 10 10 9 9 9 8 9 9 9 8 8 8 9 9 10 10 10
6 5 5 6 8 12 13 12 11 8 7 8 10 7 5 5 6 7 9 10 8 8 9 10 10 9 9 9 10 10 10 9 9 10 10 10 9 8 9 9 10 10 11 10
7 6 4 5 6 9 9 5 3 4 7 8 8 3 5 5 5 7 8 6 9 10 11 10 9 8 9 9 10 10 9 10 10 11 11 10 9 9 10 10 10 11 10 10
4 7 5 4 6 10 11 7 3 2 6 5 3 5 6 7 8 7 6 9 10 10 10 9 8 8 9 9 10 10 10 10 11 11 11 10 9 10 10 11 11 10 9 10
1 3 5 5 5 7 6 3 4 3 4 6 6 6 8 9 9 7 9 11 11 11 9 8 8 8 9 9 9 10 11 11 11 11 11 10 10 10 11 12 11 9 9 10
4 4 7 7 6 8 5 4 2 2 2 3 6 7 7 6 7 9 11 11 10 10 9 9 9 8 9 10 10 11 12 12 12 11 11 11 11 11 12 11 10 10 9 9
7 6 7 6 7 8 3 3 2 4 6 7 7 7 8 8 10 11 11 10 10 9 9 9 8 9 10 10 11 12 12 12 11 11 11 12 11 11 11 11 11 10 9 10
6 6 4 5 7 3 1 4 6 7 8 7 7 8 9 10 10 11 10 9 9 8 8 8 9 10 11 10 10 13 13 12 12 12 12 11 11 11 11 11 11 10 9 9
5 4 5 7 7 8 10 10 9 8 8 9 9 9 9 10 10 9 8 8 8 8 9 9 10 12 13 12 11 12 13 13 13 12 12 11 11 12 11 9 8 9 9 10
6 5 6 10 11 11 8 8 10 11 10 11 10 9 8 8 9 8 7 8 8 8 8 9 10 13 14 13 13 13 13 13 13 12 11 11 11 12 12 10 10 11 10 12
7 9 10 12 10 10 10 10 11 11 10 9 9 9 8 7 8 8 8 7 8 9 10 11 12 13 15 14 14 13 12 12 12 11 11 10 10 11 11 12 12 14 16 22
Wind_Direction
214 232 254 275 313 333 328 303 295 293 312 316 277 285 295 303 322 359 14 12 4 347 331 306 190 185 182 183 185 184 186 188 188 194 200 203 210 210 209 207 206 202 201 201
250 244 267 334 6 317 286 283 285 292 346 318 281 287 287 277 102 76 58 45 30 14 7 7 42 157 177 182 186 186 187 189 193 200 203 204 204 210 214 210 211 207 203 201
258 253 109 334 296 279 274 276 296 316 329 282 273 297 267 118 104 91 74 63 50 36 26 17 21 84 180 187 189 195 192 193 195 194 192 198 204 209 216 216 215 211 207 205
273 304 61 277 272 274 283 343 338 321 323 305 329 305 288 158 119 104 87 68 51 41 35 29 22 8 212 203 196 196 196 197 195 192 199 202 209 217 220 217 215 212 212 210
270 146 205 261 292 338 295 341 284 285 288 286 252 233 278 217 132 115 99 81 63 50 41 31 22 355 315 213 197 198 199 203 198 199 205 211 221 228 227 217 217 216 216 216
252 182 197 307 41 254 303 292 258 232 260 262 224 206 280 291 119 113 96 76 58 42 35 28 21 10 353 331 192 196 204 213 207 205 209 215 224 227 227 225 224 221 219 218
231 191 155 136 254 196 236 288 306 221 217 228 120 234 253 285 95 103 98 73 57 41 33 23 16 10 4 353 254 204 210 224 220 216 218 221 226 227 231 232 231 227 226 223
278 189 169 188 248 333 277 301 301 298 291 316 260 236 250 150 108 116 108 87 63 48 39 30 21 16 10 6 351 261 225 228 226 225 226 226 226 228 235 234 233 234 233 229
308 77 119 140 131 260 272 223 43 322 287 270 249 243 242 172 128 116 99 77 66 56 44 33 22 19 16 13 4 350 297 255 236 230 231 230 229 229 233 233 233 239 239 232
317 299 179 142 177 227 283 324 308 246 267 277 273 266 260 128 114 85 64 68 74 61 46 32 16 9 11 8 357 360 334 293 267 247 238 237 234 233 233 232 235 237 238 234
280 274 221 168 203 195 178 207 226 255 270 273 286 274 357 349 35 47 34 69 78 66 50 30 7 358 359 355 351 340 305 281 274 268 260 252 246 241 238 238 239 238 238 234
222 289 276 256 78 90 157 232 238 248 261 259 276 274 309 61 70 35 41 66 78 76 54 28 5 351 349 344 338 333 317 296 270 256 258 261 259 251 245 245 245 241 240 237
84 257 282 258 81 53 205 230 238 256 276 268 268 270 311 340 342 14 49 48 51 57 38 13 357 343 338 333 329 325 319 310 292 269 260 263 262 258 253 251 248 244 242 242
359 250 244 265 290 310 284 266 248 244 257 262 254 272 293 311 330 18 38 20 8 358 2 357 343 332 326 321 319 316 316 311 305 293 278 271 266 263 263 262 257 251 245 243
230 254 261 271 283 290 287 282 273 264 262 268 276 282 293 311 14 28 13 357 341 331 338 340 331 322 319 318 316 316 315 313 311 305 295 284 276 273 274 274 272 267 259 253
211 267 282 277 280 283 280 272 265 263 260 262 272 279 291 50 39 16 357 333 317 316 332 333 326 321 319 318 316 316 312 310 311 305 295 289 285 280 277 274 272 270 265 258
205 223 277 277 293 300 275 263 252 242 247 264 275 295 20 27 20 355 324 307 315 334 336 327 320 318 318 316 315 314 308 310 311 304 297 292 286 281 277 275 273 269 264 257
249 259 269 284 300 251 250 292 273 266 281 289 290 342 31 20 346 312 299 333 346 335 325 318 316 317 314 313 314 312 313 313 309 303 299 297 293 288 284 279 275 272 267 262
244 227 241 252 266 277 275 283 299 300 290 302 334 17 359 339 323 306 336 354 332 321 316 313 315 317 317 315 314 315 311 307 305 302 299 299 297 294 291 286 281 277 273 271
311 216 216 223 239 255 282 72 56 21 295 36 28 351 335 340 321 306 337 332 323 320 318 321 323 320 314 310 314 312 305 304 302 300 301 302 301 298 292 287 285 283 278 275
169 198 216 233 246 262 280 130 120 240 284 6 338 330 334 321 296 308 324 320 315 316 318 321 321 314 308 310 312 305 302 299 297 300 303 302 298 294 292 289 285 284 281 280
183 197 204 203 222 253 149 137 237 293 331 333 342 347 334 317 312 315 314 315 319 318 316 319 315 307 305 307 307 302 299 298 300 302 301 299 296 296 297 292 289 285 284 284
221 226 231 216 227 275 94 317 316 333 335 346 347 337 326 314 311 313 312 314 312 310 311 310 307 304 303 303 302 302 302 305 305 302 300 299 298 298 296 293 292 291 287 283
258 255 261 280 281 309 320 320 333 353 352 343 335 328 322 312 312 312 311 309 307 305 305 306 306 304 302 302 302 302 306 307 305 303 302 301 302 301 296 290 287 288 287 284
281 311 285 274 283 295 299 334 347 343 339 331 327 324 319 316 312 308 303 299 299 301 300 302 300 300 301 306 307 305 305 306 304 302 301 301 298 298 297 291 287 286 278 280
244 257 265 274 299 310 316 333 336 331 326 325 324 320 317 309 300 298 293 293 298 300 301 303 301 302 304 305 303 302 302 304 305 305 303 301 299 298 295 295 293 283 282 290
Height
1525 1528 1528 1522 1519 1521 1522 1524 1524 1515 1506 1507 1506 1499 1488 1483 1482 1481 1480 1480 1479 1478 1477 1476 1475 1477 1479 1482 1485 1486 1488 1489 1492 1494 1495 1496 1497 1499 1501 1502 1504 1505 1507 1509
1525 1526 1520 1517 1518 1520 1522 1524 1521 1511 1504 1507 1503 1496 1485 1480 1480 1481 1481 1481 1480 1479 1476 1475 1475 1475 1476 1478 1480 1481 1482 1483 1484 1486 1487 1489 1491 1493 1494 1496 1496 1497 1498 1499
1523 1518 1517 1518 1520 1521 1520 1521 1517 1515 1510 1503 1503 1499 1483 1479 1479 1481 1482 1482 1481 1480 1478 1476 1475 1475 1475 1475 1475 1476 1477 1478 1478 1480 1483 1484 1485 1485 1486 1485 1486 1488 1489 1490
1517 1514 1516 1518 1519 1518 1521 1514 1515 1516 1520 1517 1508 1518 1491 1480 1481 1481 1482 1482 1482 1481 1479 1478 1476 1475 1474 1473 1473 1473 1473 1473 1474 1475 1475 1475 1475 1473 1473 1476 1478 1480 1482 1482
1516 1513 1516 1518 1516 1516 1514 1513 1515 1516 1519 1521 1509 1514 1497 1479 1482 1482 1481 1482 1482 1481 1480 1478 1476 1475 1473 1471 1470 1469 1469 1469 1470 1470 1470 1470 1469 1468 1471 1472 1472 1472 1473 1474
1513 1512 1514 1514 1515 1516 1515 1514 1512 1515 1519 1525 1503 1507 1499 1480 1478 1480 1480 1481 1482 1482 1480 1478 1476 1474 1472 1469 1468 1466 1466 1465 1466 1466 1465 1464 1463 1464 1465 1465 1464 1465 1465 1464
1507 1511 1513 1515 1516 1516 1517 1519 1520 1522 1529 1518 1498 1501 1496 1476 1474 1476 1479 1481 1481 1481 1479 1477 1475 1473 1471 1468 1466 1464 1463 1462 1462 1462 1461 1460 1459 1460 1459 1459 1459 1459 1458 1456
1512 1513 1513 1513 1513 1516 1513 1516 1526 1530 1521 1510 1498 1503 1486 1472 1473 1475 1478 1479 1480 1479 1478 1477 1475 1473 1471 1468 1466 1463 1461 1460 1458 1457 1456 1455 1455 1454 1452 1452 1452 1451 1450 1449
1510 1511 1510 1509 1510 1513 1512 1513 1511 1521 1518 1519 1503 1485 1473 1469 1472 1474 1476 1477 1478 1478 1477 1476 1475 1473 1471 1468 1466 1463 1461 1458 1456 1454 1452 1451 1449 1448 1446 1445 1444 1443 1442 1442
1510 1514 1508 1511 1513 1513 1514 1514 1517 1521 1525 1522 1501 1490 1485 1475 1475 1475 1475 1476 1477 1476 1476 1475 1474 1473 1471 1468 1465 1463 1460 1457 1454 1452 1449 1447 1444 1442 1440 1438 1435 1433 1433 1433
1509 1515 1511 1512 1512 1508 1516 1516 1515 1516 1513 1521 1517 1499 1474 1472 1472 1474 1474 1475 1475 1475 1475 1475 1474 1472 1470 1468 1465 1462 1458 1455 1452 1449 1446 1443 1440 1437 1434 1431 1428 1426 1424 1423
1509 1512 1513 1504 1498 1498 1501 1504 1509 1519 1514 1508 1512 1499 1471 1469 1470 1472 1474 1474 1474 1474 1474 1473 1472 1471 1468 1466 1463 1460 1456 1453 1449 1445 1442 1438 1435 1432 1428 1425 1422 1419 1416 1414
1509 1514 1518 1508 1510 1506 1504 1503 1503 1507 1510 1511 1513 1498 1471 1469 1470 1472 1473 1473 1473 1473 1472 1471 1470 1468 1466 1463 1460 1456 1453 1449 1445 1441 1437 1433 1429 1425 1422 1418 1415 1411 1408 1406
1510 1512 1516 1516 1507 1503 1503 1500 1500 1504 1508 1505 1498 1487 1477 1474 1473 1472 1472 1472 1472 1471 1470 1469 1467 1465 1463 1460 1456 1453 1449 1445 1440 1436 1432 1427 1423 1419 1415 1411 1407 1404 1400 1397
1511 1513 1509 1505 1500 1499 1498 1496 1495 1497 1495 1496 1486 1482 1475 1473 1473 1472 1472 1472 1471 1469 1468 1466 1464 1461 1459 1455 1452 1448 1444 1439 1435 1430 1426 1421 1417 1412 1408 1404 1400 1396 1392 1389
1509 1511 1508 1505 1500 1497 1494 1488 1487 1486 1484 1482 1480 1476 1471 1470 1471 1471 1471 1470 1469 1467 1465 1463 1460 1457 1454 1450 1446 1442 1438 1434 1429 1424 1419 1414 1410 1405 1401 1396 1392 1388 1384 1380
1505 1508 1510 1509 1501 1499 1494 1479 1476 1476 1473 1475 1477 1473 1469 1470 1471 1471 1471 1469 1467 1464 1462 1459 1457 1453 1449 1446 1441 1437 1432 1428 1423 1418 1413 1408 1403 1398 1393 1389 1384 1379 1375 1371
1503 1506 1509 1509 1506 1510 1485 1469 1469 1470 1471 1471 1470 1470 1470 1471 1471 1471 1469 1467 1464 1462 1459 1456 1452 1448 1445 1441 1436 1432 1427 1422 1417 1412 1407 1402 1397 1391 1386 1381 1376 1371 1367 1363
1497 1502 1506 1509 1509 1496 1479 1470 1469 1471 1471 1469 1469 1469 1470 1469 1468 1468 1467 1464 1462 1459 1455 1452 1448 1444 1440 1436 1431 1426 1421 1416 1411 1406 1401 1396 1390 1384 1379 1374 1369 1364 1360 1355
1498 1499 1506 1506 1508 1503 1478 1473 1470 1474 1476 1471 1470 1470 1469 1468 1470 1466 1464 1461 1458 1455 1451 1447 1443 1439 1435 1431 1426 1421 1415 1410 1405 1400 1394 1389 1383 1378 1372 1367 1362 1357 1353 1348
1501 1502 1505 1505 1503 1489 1473 1472 1472 1481 1477 1472 1470 1469 1468 1467 1467 1462 1459 1456 1454 1450 1446 1442 1438 1434 1430 1426 1421 1415 1410 1404 1399 1393 1387 1382 1376 1371 1365 1360 1355 1350 1345 1341
1492 1496 1497 1497 1500 1491 1472 1472 1474 1474 1469 1468 1466 1466 1465 1463 1460 1458 1455 1451 1448 1445 1441 1438 1434 1430 1425 1421 1415 1409 1403 1398 1392 1386 1380 1374 1369 1364 1358 1353 1348 1343 1339 1333
1482 1481 1480 1481 1481 1471 1470 1470 1470 1469 1467 1466 1464 1463 1461 1458 1455 1453 1450 1447 1444 1441 1437 1434 1429 1424 1420 1415 1410 1403 1397 1391 1385 1378 1372 1367 1361 1356 1352 1347 1341 1336 1332 1327
1477 1474 1476 1476 1470 1468 1468 1468 1468 1467 1465 1463 1462 1460 1457 1454 1451 1448 1445 1442 1439 1436 1433 1429 1424 1418 1413 1408 1403 1397 1390 1384 1377 1371 1365 1360 1354 1349 1344 1340 1335 1330 1325 1320
1478 1476 1475 1473 1470 1468 1467 1467 1465 1463 1461 1459 1457 1455 1453 1450 1447 1444 1441 1438 1436 1432 1428 1424 1419 1412 1406 1401 1395 1390 1384 1377 1370 1364 1358 1353 1347 1342 1337 1332 1329 1324 1319 1315
1476 1476 1476 1471 1470 1468 1466 1465 1462 1460 1458 1455 1453 1450 1448 1446 1443 1440 1437 1434 1431 1427 1423 1418 1412 1406 1399 1393 1387 1382 1377 1371 1364 1357 1351 1346 1340 1335 1330 1325 1320 1316 1313 1307